Powrót do katalogu

STARLINK-36868

AktywnyŁącznośćSSO
NORAD 68120·PAYLOAD·🇺🇸 United States

Wystrzelony Mar 8, 2026 z Vandenberg Space Force Base

Loading…

Następne Przeloty (najbliższe 24 godziny)

TLE

ŚwieżeSource: CelesTrak SupGP

Epoka: Sep 14, 2026, 21:18 UTC

1 68120C 26044V   26257.88798611 -.00012585  00000+0 -39061-3 0  2574
2 68120  97.2852 216.9606 0002272  92.7201 152.2750 15.33448138    19

Śledź STARLINK-36868 w czasie rzeczywistym z AllMySat

Download on the App Store